Content
SEND FEEDBACK

Daily
Averages
Monthly
Summary
Turkmenistan

ASHGABAT, TURKMENISTAN


Home > Asia > Turkmenistan
Elevation: 775 feet     Latitude: 37 58N     Longitude: 058 20E

WEATHER
 
SELECT A DAY
Number of Records: 177,170;   Date Range: 3/15/97 - 7/23/14
 
SHARE

PRINT THIS DATA

[ ← Previous Day ]
WEATHER ALMANAC - NOVEMBER 16, 2013
[ Next Day → ]
[ °C ]   °F
Weather ElementAverageHighLow
Temperature55.4 °F66.2 °F (3:00 pm)46.4 °F (5:00 am)
Dewpoint40.3 °F46 °F (2:00 pm)35.6 °F (9:00 pm)
Humidity56 %76 % (5:00 am)34 % (5:00 pm)
Barometer30.14 in30.20 in (11:00 am)30.06 in (1:00 am)
Wind Speed5.3 mph13.4 mph (8:00 pm)
Weather ElementAverage
Visibility6 mi
Wind DirectionSSE (168.7 °)

Weather ElementTotal
Precipitation---
Heating Degree Days8.7 (Base 65)
Growing Degree Days6.3 (Base 50)
Averaged from 31 records on November 16, 2013
WEATHER CONDITIONS BREAKOUT
WIND DIRECTION BREAKOUT
WEATHER BY HOUR - NOVEMBER 16, 2013
[ °C ]   °F
Local TimeTemperatureDewpointHumidityBarometerVisibilityWind DirectionWind SpeedGust SpeedPrecipitationEventsConditions
1:00 AM50.0 °F41.0 °F71 %30.06 in6.2 miSSW (210°)4.5 mphClear
2:00 AM47.0 °F39.0 °F66 %30.12 in6.0 miSW (220°)2.2 mphPartly Cloudy
2:00 AM48.2 °F39.2 °F71 %30.06 in5.0 miSouth (190°)6.7 mphClear
3:00 AM50.0 °F41.0 °F71 %30.06 in6.2 miSSW (200°)2.2 mphPartly Cloudy
4:00 AM48.2 °F37.4 °F66 %30.09 in3.7 miWSW (240°)4.5 mphPartly Cloudy
5:00 AM47.0 °F39.0 °F66 %30.12 in6.0 miSW (220°)2.2 mphPartly Cloudy
5:00 AM46.4 °F39.2 °F76 %30.09 in6.2 miSSW (210°)2.2 mphScattered Clouds
6:00 AM50.0 °F39.2 °F66 %30.09 in6.2 miSW (230°)4.5 mphMostly Cloudy
7:00 AM46.4 °F39.2 °F76 %30.12 in6.2 miSSW (210°)4.5 mphScattered Clouds
8:00 AM48.0 °F40.0 °F66 %30.16 in6.0 miSSW (210°)4.5 mphScattered Clouds
8:00 AM48.2 °F39.2 °F71 %30.12 in6.2 miSSW (210°)4.5 mphScattered Clouds
9:00 AM48.2 °F41.0 °F76 %30.15 in6.2 miSW (220°)4.5 mphScattered Clouds
10:00 AM55.4 °F42.8 °F63 %30.18 in5.6 miVariable2.2 mphMostly Cloudy
11:00 AM59.0 °F43.0 °F45 %30.20 in6.0 miSSE (150°)2.2 mphPartly Cloudy
11:00 AM62.6 °F42.8 °F48 %30.18 in6.2 miVariable2.2 mphMostly Cloudy
12:00 PM64.4 °F41.0 °F42 %30.18 in6.2 miVariable2.2 mphMostly Cloudy
1:00 PM64.4 °F41.0 °F42 %30.15 in6.2 miNE (50°)4.5 mphMostly Cloudy
2:00 PM66.0 °F46.0 °F37 %30.14 in6.0 miEast (100°)4.5 mphScattered Clouds
2:00 PM64.4 °F41.0 °F42 %30.12 in6.2 miEast (100°)4.5 mphScattered Clouds
3:00 PM66.2 °F39.2 °F37 %30.12 in6.2 miENE (60°)4.5 mphMostly Cloudy
4:00 PM66.2 °F39.2 °F37 %30.12 in6.2 miEast (100°)8.9 mphMostly Cloudy
5:00 PM64.0 °F42.0 °F34 %30.14 in6.0 miENE (70°)4.5 mphMostly Cloudy
5:00 PM64.4 °F39.2 °F40 %30.12 in6.2 miENE (70°)4.5 mphMostly Cloudy
6:00 PM62.6 °F41.0 °F45 %30.15 in6.2 miEast (80°)2.2 mphOvercast
7:00 PM60.8 °F42.8 °F52 %30.15 in6.2 miSE (140°)2.2 mphRainLight Rain Showers
8:00 PM56.0 °F46.0 °F59 %30.17 in6.0 miWNW (290°)13.4 mphRainLight Rain Showers
8:00 PM55.4 °F41.0 °F58 %30.18 in6.2 miWNW (290°)13.4 mphMostly Cloudy
9:00 PM53.6 °F35.6 °F51 %30.18 in6.2 miWNW (290°)8.9 mphMostly Cloudy
10:00 PM51.8 °F37.4 °F58 %30.18 in6.2 miWNW (300°)11.2 mphMostly Cloudy
11:00 PM52.0 °F37.0 °F46 %30.20 in6.0 miWest (280°)11.2 mphPartly Cloudy
11:00 PM51.8 °F37.4 °F58 %30.18 in6.2 miWNW (290°)11.2 mphMostly Cloudy
Hourly data recorded from UTAA, located miles away from Ashgabat, Turkmenistan







STORIES FROM OUR PARTNERS